RH
12 14 17 20 21 20 21 21 21 20 18 17 16 15 16 17 20 21 22 23 23 25 24 21 19 21 22 17 24 53 79 84 83 84 88 86 84 90 91 95 99 98 91 86 86 80 73 72 77 78 82 86 80 70 58 50 50 51 52 57 73 94 99 100 101 92 94 99 102 99 81 59 40 26 19 21 24 28 32 32 28 37 51 41 31 35 37 37 32 24 17 19 30 38 38 41 48
9 11 13 16 18 18 18 19 19 19 20 17 17 16 16 18 22 22 21 22 21 21 21 18 18 19 20 19 29 67 95 95 93 94 95 87 79 81 83 90 101 104 99 94 90 81 76 75 77 75 73 73 70 63 56 56 58 56 59 70 82 91 95 97 98 96 101 100 91 73 51 34 22 18 20 23 31 38 34 26 30 47 49 34 34 37 36 35 32 23 16 19 24 28 27 30 36
7 9 10 12 13 14 14 16 18 18 20 18 17 16 16 17 19 21 21 21 20 20 19 18 18 17 20 26 43 73 92 90 83 80 82 81 83 86 84 90 97 99 93 86 82 76 73 71 67 63 58 61 66 62 63 75 83 87 88 91 97 100 101 99 99 98 90 75 57 41 28 19 17 20 22 25 38 37 25 27 40 52 43 34 38 38 38 37 33 25 17 19 23 23 23 27 29
7 8 9 10 11 12 13 16 19 20 19 17 17 18 18 18 16 17 17 18 18 18 19 21 22 23 27 39 60 81 89 80 62 54 63 75 88 99 101 101 100 93 83 75 71 64 58 53 52 52 48 49 56 64 82 98 99 102 104 103 102 99 96 93 88 77 62 47 33 24 17 17 21 21 19 24 31 25 23 36 48 52 41 35 39 40 42 40 35 27 19 18 22 22 21 27 29
7 7 8 8 9 9 12 15 17 18 19 20 20 22 25 24 19 16 16 16 17 18 22 27 27 27 32 48 69 83 81 60 38 31 43 60 68 78 84 82 81 76 73 67 60 55 50 49 50 51 49 55 68 83 98 105 104 101 94 86 82 79 77 73 67 57 43 31 22 17 17 24 23 15 15 19 20 18 31 43 50 55 40 35 42 44 41 38 37 30 25 20 20 22 22 29 42
8 7 7 6 8 8 9 10 12 13 16 20 22 21 22 19 17 16 15 15 15 17 19 23 23 23 27 39 51 53 42 24 24 29 34 47 51 60 68 65 64 63 66 64 65 69 68 64 64 67 72 81 92 99 103 101 93 80 71 69 71 70 66 59 52 40 27 20 17 18 24 26 17 12 14 16 16 21 41 47 52 61 41 36 45 44 40 36 40 35 32 26 19 23 26 34 57
8 7 8 6 6 7 8 8 8 9 11 13 14 13 12 11 11 12 13 14 15 16 17 19 19 19 18 19 20 15 12 11 23 40 53 69 76 83 89 86 83 81 81 81 87 92 88 85 84 89 95 100 101 100 95 87 79 76 78 77 72 64 56 48 36 24 19 18 18 24 27 20 11 12 14 15 19 24 45 51 59 70 44 39 46 43 41 38 44 39 38 36 26 25 28 40 60
9 8 8 8 7 7 7 7 7 7 7 7 7 7 7 7 7 8 8 10 11 12 15 16 15 14 11 10 11 11 15 18 37 67 81 90 97 99 101 99 98 99 98 96 98 100 99 99 99 101 103 102 99 92 86 85 87 87 81 71 63 53 43 32 23 18 19 20 23 30 23 12 10 13 13 15 22 27 47 56 64 79 52 41 50 45 43 43 49 43 40 43 37 31 28 42 62
9 11 10 8 8 8 8 7 7 7 7 6 7 6 7 8 9 10 9 9 8 8 9 11 12 13 16 18 22 28 31 31 56 94 99 96 100 100 99 99 99 99 99 100 99 98 98 101 102 102 98 92 87 85 88 92 89 79 68 59 47 34 26 21 20 21 22 26 30 26 14 10 12 12 13 17 29 34 49 57 63 87 67 45 54 51 46 49 55 48 42 46 44 38 30 38 59
9 10 12 14 12 8 8 7 7 7 7 7 7 8 10 12 14 13 12 11 10 9 11 13 16 20 24 28 36 47 52 50 58 81 89 92 99 100 101 100 101 102 102 101 100 98 97 99 98 90 81 74 75 82 87 85 77 65 54 38 26 20 21 23 23 26 27 28 23 14 10 11 11 11 15 24 39 43 53 59 57 90 88 56 58 56 50 53 59 54 45 51 52 46 43 40 47
11 10 10 17 24 20 13 9 8 7 8 8 8 9 9 10 11 12 11 12 11 11 14 18 23 25 23 29 52 67 73 80 79 78 77 82 90 91 92 91 91 92 93 96 98 98 96 93 84 72 64 63 70 77 78 70 58 42 29 19 19 23 25 25 24 25 22 17 12 11 11 10 11 13 19 31 48 50 56 63 56 88 98 65 63 63 57 56 61 61 51 59 58 49 53 52 47
10 11 10 13 21 27 26 20 15 12 11 9 8 8 8 9 10 10 10 15 19 19 21 29 39 45 46 54 70 77 81 95 98 95 91 92 95 92 90 88 85 83 86 93 95 92 86 78 68 61 60 65 70 68 57 42 29 19 17 20 24 25 22 19 16 15 11 11 11 11 10 8 13 17 25 38 52 54 53 65 63 87 97 71 73 74 69 67 67 66 58 70 67 55 59 57 55
12 10 10 11 11 17 22 22 19 15 12 9 9 8 8 11 13 14 15 23 33 42 50 57 67 77 86 89 87 83 83 87 91 94 96 97 97 95 95 93 91 89 90 89 86 78 69 65 62 62 61 59 51 38 26 18 17 18 21 23 22 19 14 12 10 11 10 12 11 9 11 10 16 23 34 44 56 57 52 64 72 90 95 77 86 85 81 77 73 72 66 80 76 64 66 58 58
9 11 10 9 9 10 11 13 13 11 10 8 8 9 10 14 19 23 29 38 49 60 70 75 80 86 91 90 85 81 79 77 78 81 83 85 86 86 85 84 83 80 78 74 70 65 60 58 54 49 40 30 20 15 16 18 20 18 18 17 15 12 10 12 11 12 12 11 10 9 12 13 19 26 37 50 58 60 53 58 68 92 100 85 89 86 84 82 80 82 77 89 82 65 65 60 63
11 7 10 11 12 14 14 14 14 16 17 17 19 19 18 24 32 41 50 59 66 71 74 75 78 80 81 79 76 73 69 68 66 65 64 65 66 67 69 69 68 65 64 61 56 50 43 37 28 21 15 12 12 15 18 17 14 11 11 10 10 11 12 14 12 12 10 9 10 9 11 14 22 28 35 43 49 56 55 53 57 84 106 97 92 86 85 84 86 93 88 96 91 73 67 63 68
38 20 10 12 18 23 24 22 22 26 30 36 42 41 34 38 51 64 71 74 77 78 77 78 80 80 80 78 74 70 65 62 57 53 50 47 47 47 48 47 46 44 41 37 31 25 19 14 11 10 9 10 12 13 13 11 10 10 11 12 13 14 13 12 11 10 9 9 10 10 12 15 21 25 27 30 33 40 47 52 52 69 98 103 97 96 93 84 84 93 93 97 98 92 83 71 75
50 54 37 24 27 34 38 36 34 34 36 40 48 51 51 57 71 79 77 71 68 69 69 73 77 78 78 76 72 68 64 57 49 40 33 29 27 24 24 22 21 19 17 16 13 11 10 9 9 9 9 9 10 11 12 12 14 15 15 14 13 11 10 10 9 9 9 9 9 10 11 12 14 15 16 20 23 27 33 45 52 58 81 100 101 100 99 91 87 88 88 93 98 100 96 88 89
27 63 73 57 47 51 56 53 49 45 43 42 44 51 56 65 76 74 59 47 43 44 48 55 64 68 69 66 59 52 44 35 25 18 14 12 11 11 10 10 11 11 11 11 10 10 9 9 9 9 10 11 13 14 16 17 16 15 13 11 10 10 9 9 9 9 9 8 9 10 10 10 10 10 11 13 16 21 24 33 53 61 66 84 96 99 100 98 93 85 85 95 100 98 99 98 99
8 38 72 79 71 69 68 59 47 39 38 37 42 51 56 60 61 51 34 24 21 23 29 36 45 50 46 39 31 24 18 13 11 11 11 11 11 12 12 12 12 11 11 10 9 9 9 10 11 12 14 15 17 18 17 16 13 11 10 9 9 9 9 9 9 9 9 9 10 9 9 10 9 10 11 11 12 15 17 20 42 62 65 70 78 87 92 97 100 95 93 100 103 99 99 100 97
5 15 48 80 89 83 74 59 39 25 23 26 32 41 44 41 35 25 17 14 13 13 15 19 23 25 21 17 15 13 13 13 14 14 14 14 13 12 12 11 10 9 9 9 9 10 11 13 15 17 19 19 17 15 13 11 10 10 9 9 9 9 9 9 9 9 9 10 12 16 18 16 13 13 11 12 12 12 14 14 21 41 57 66 72 77 82 87 93 96 97 101 103 103 103 102 100
7 8 24 59 88 90 70 47 30 20 20 23 23 24 22 18 15 12 11 10 10 10 11 13 15 15 14 14 14 13 13 12 11 11 11 10 9 8 8 7 8 8 8 10 11 13 16 17 18 18 17 15 13 11 10 10 9 10 9 9 9 9 10 9 10 10 10 11 17 27 28 21 17 16 15 14 13 12 13 14 14 19 29 44 59 72 82 87 87 89 93 99 103 104 103 101 102
8 10 13 36 68 73 50 29 22 21 21 21 19 17 16 15 15 14 15 16 16 14 14 14 14 13 12 12 11 10 8 8 7 6 6 5 6 6 6 7 8 9 11 13 15 17 18 17 16 14 12 11 10 10 10 10 9 10 10 10 10 10 10 10 11 10 11 13 16 23 24 20 18 18 18 17 16 16 14 14 14 14 16 20 29 44 62 74 79 84 90 97 104 104 102 101 100
6 11 18 29 40 38 28 24 24 22 22 22 21 21 22 22 21 21 22 22 20 16 15 15 14 13 12 12 11 11 10 9 8 7 7 7 8 8 8 10 11 13 15 16 17 16 15 14 12 11 10 10 10 10 10 10 10 10 10 10 10 11 11 11 11 11 13 15 16 18 20 19 20 19 19 20 18 17 17 16 16 15 16 15 16 20 26 33 38 45 55 67 79 86 91 95 99
9 7 15 20 18 18 24 28 26 23 25 28 28 27 26 26 24 24 23 22 19 18 19 19 18 16 15 16 15 15 14 13 13 12 12 11 11 12 13 13 14 14 15 15 14 12 12 11 10 10 10 10 10 10 11 12 13 12 12 11 11 11 11 12 12 12 13 15 16 19 22 23 26 26 22 22 20 18 17 18 18 18 19 19 19 17 16 16 17 17 19 25 32 41 51 62 76
16 8 8 11 13 19 26 28 26 24 22 26 31 32 32 34 35 35 31 28 25 24 24 24 23 22 20 21 21 19 16 14 14 13 13 14 14 14 14 14 14 14 13 12 11 10 11 10 10 10 10 10 11 15 19 19 17 15 13 13 13 13 14 15 15 15 15 16 20 24 28 30 33 33 26 22 22 19 19 20 21 22 22 22 22 22 22 21 20 19 16 16 15 15 19 25 34
20 15 7 8 15 20 21 21 21 18 14 16 27 35 40 45 49 48 41 34 30 28 28 28 28 26 25 23 20 16 14 13 13 13 14 14 14 14 14 14 14 13 11 10 10 10 10 10 11 10 10 12 19 25 26 22 19 17 16 16 16 18 19 21 22 22 24 26 28 30 35 38 37 36 30 24 22 21 25 28 29 28 24 23 25 26 26 26 25 23 21 20 18 16 15 14 15
18 21 14 8 12 15 12 13 13 13 13 13 19 30 42 52 52 47 44 38 32 32 33 33 29 26 22 18 14 13 13 13 14 14 14 14 14 14 13 13 12 11 10 10 11 10 11 13 13 13 16 24 31 32 27 23 20 18 19 20 22 24 25 26 29 31 33 35 36 36 41 46 43 37 35 30 24 24 29 34 37 35 31 27 28 28 27 28 28 28 28 28 29 28 25 20 16
14 20 22 15 11 10 8 8 10 11 14 18 20 22 31 44 45 42 44 42 38 39 39 34 27 21 17 13 12 14 14 15 15 15 14 14 13 12 11 10 10 10 10 11 10 12 17 19 20 23 31 36 37 33 27 23 21 21 23 25 26 27 29 32 35 36 38 39 40 41 43 47 49 42 35 29 24 24 26 33 40 41 39 34 29 29 28 29 33 37 41 43 47 48 48 43 31
13 14 21 23 19 14 11 10 11 14 18 28 32 32 35 38 43 46 44 44 48 45 37 30 24 20 17 14 14 13 13 13 13 13 12 12 11 10 10 10 10 10 11 11 12 16 20 24 28 34 42 43 41 35 28 24 23 24 25 26 28 32 39 44 44 42 39 40 42 44 45 46 51 50 42 33 24 22 23 31 41 41 41 37 29 28 30 33 38 44 51 55 59 62 63 64 60
16 13 13 18 22 21 19 18 19 22 26 34 42 53 61 55 55 59 51 51 54 42 32 31 29 25 19 14 12 11 11 11 11 11 10 10 10 10 11 11 11 11 11 11 12 17 23 29 34 40 48 51 48 37 27 26 25 25 27 27 30 39 46 48 49 47 40 38 37 38 40 42 47 51 53 51 40 29 23 25 39 43 40 36 31 32 35 36 40 44 50 53 57 63 65 68 71
18 17 13 12 16 18 22 24 27 28 30 34 38 50 60 57 58 60 54 54 50 41 42 43 34 24 17 12 10 10 10 10 10 10 10 11 11 12 12 13 15 18 21 24 28 33 39 43 43 45 51 55 53 40 27 27 26 26 29 28 33 40 45 42 39 39 36 32 30 29 29 34 44 50 55 59 58 51 38 27 32 38 36 34 34 38 40 40 42 42 41 43 45 51 58 64 69
19 21 18 14 13 13 17 24 31 32 33 32 28 33 42 51 61 62 56 49 43 43 46 46 33 18 14 11 10 10 10 10 10 10 11 11 12 14 15 18 24 31 37 39 42 45 49 54 53 49 49 53 53 40 29 29 29 29 30 31 35 36 40 40 31 27 28 26 25 25 23 27 37 51 59 61 62 64 61 49 39 39 39 39 39 42 45 47 48 46 41 39 39 41 46 53 60
17 21 22 18 15 13 12 19 31 36 40 41 35 32 33 45 61 62 54 46 43 46 43 43 36 19 15 15 12 11 11 11 11 11 11 12 13 15 17 22 29 34 35 35 38 41 44 50 55 53 51 52 46 34 30 31 32 35 35 34 35 35 39 39 28 22 24 22 22 23 22 23 28 40 53 58 60 63 68 68 60 53 49 46 46 44 46 52 54 54 50 46 44 43 43 44 47
15 18 22 21 18 16 14 16 25 38 45 44 40 38 31 34 46 49 49 48 46 47 45 48 46 32 25 24 21 19 15 14 14 14 15 17 18 19 20 23 27 30 33 35 39 40 41 44 49 49 45 41 34 30 30 31 36 42 43 42 40 39 38 31 23 21 21 21 21 21 21 22 23 28 35 42 48 51 57 65 67 60 50 46 47 45 47 54 58 59 59 57 54 50 47 46 44
16 15 19 22 21 19 18 17 20 29 34 29 26 29 26 25 31 38 44 43 40 43 45 49 50 40 28 21 20 21 19 17 16 16 17 19 22 24 25 27 32 37 38 39 39 39 39 38 37 35 33 32 28 28 28 28 33 37 37 37 35 32 28 22 20 20 19 19 19 20 20 21 21 23 26 29 33 38 44 53 63 63 52 46 44 43 47 54 58 59 60 59 57 53 50 48 47
19 16 15 19 23 22 21 21 21 23 25 22 17 16 17 16 16 24 31 27 25 29 31 32 30 25 18 15 16 18 19 20 20 21 22 24 26 26 27 31 38 42 41 38 35 35 34 32 30 28 32 34 26 22 24 24 24 25 24 24 23 22 19 18 19 18 18 19 19 19 19 20 21 22 23 25 29 35 40 45 53 57 54 51 46 42 46 53 58 59 58 56 54 50 47 46 47
22 20 17 15 19 23 24 24 23 25 28 31 29 17 11 14 12 11 16 17 16 16 16 17 15 14 15 17 18 19 21 22 23 25 26 28 27 26 27 31 37 40 39 36 32 32 32 32 33 32 35 35 24 18 21 20 20 20 19 18 18 18 17 17 17 18 18 18 18 19 19 20 21 22 23 24 27 35 43 48 51 52 52 53 51 44 46 52 57 59 58 57 56 54 50 46 43
23 22 20 17 16 19 24 27 25 26 28 35 42 30 15 21 25 17 14 14 14 14 15 17 18 18 19 21 21 21 22 23 23 23 24 25 25 25 26 29 32 33 33 33 33 34 30 29 32 32 32 28 20 18 19 18 18 18 17 17 17 17 18 18 18 18 18 19 19 19 20 21 22 22 23 24 27 33 43 53 58 57 53 52 52 49 48 51 56 58 60 62 63 62 58 51 43
25 23 22 21 18 15 18 24 26 26 25 27 37 37 28 33 38 31 24 20 18 18 19 20 21 21 21 22 23 22 23 23 24 24 24 25 26 27 29 30 31 32 33 34 35 32 26 23 24 24 22 20 18 18 18 17 17 17 18 18 18 18 18 18 19 19 18 19 20 20 20 21 23 24 23 25 30 35 42 54 62 60 53 46 44 45 46 50 55 58 62 63 60 58 57 53 46
25 24 23 22 21 18 15 17 21 23 24 23 26 29 30 32 32 29 28 26 24 24 24 24 24 23 22 22 23 23 24 25 26 27 26 27 28 28 29 29 28 29 30 31 30 27 24 22 20 18 18 18 18 17 17 17 17 18 19 19 19 20 20 19 19 19 19 20 21 22 22 22 24 26 26 26 34 41 44 53 59 55 49 43 42 43 42 44 47 49 52 50 47 46 46 42 38
25 24 24 23 21 21 18 16 16 17 20 22 23 24 25 25 25 25 26 25 24 24 25 25 25 27 24 23 24 25 25 27 28 29 28 27 27 27 27 27 26 26 26 25 24 22 21 19 18 18 18 17 17 16 17 17 18 19 20 20 20 20 19 20 19 19 19 20 22 23 23 24 25 29 33 32 39 50 54 58 58 52 48 47 48 49 46 43 40 38 37 35 33 32 32 30 30
25 24 23 23 22 22 21 19 17 15 14 17 20 23 24 24 25 26 26 26 26 25 25 25 25 26 25 25 26 26 26 27 27 28 28 27 27 26 26 26 25 23 22 21 20 19 18 17 17 16 16 16 17 17 17 18 19 20 20 20 21 20 20 19 19 19 20 21 23 25 25 25 26 30 37 41 49 61 68 69 64 55 52 53 53 51 52 54 49 42 38 35 34 33 31 30 29
27 25 22 22 22 22 22 20 19 18 16 15 15 17 20 22 24 25 26 27 27 26 26 26 26 26 26 26 26 26 26 25 25 26 27 28 28 28 26 25 23 20 18 17 17 17 16 16 15 15 16 17 17 18 19 20 20 20 21 21 21 20 20 19 19 19 20 22 23 25 27 27 28 33 38 43 57 71 78 81 81 72 62 59 60 58 58 63 65 61 55 49 45 43 40 36 33
27 23 20 21 22 22 22 21 20 19 18 18 16 14 15 18 20 22 25 27 26 26 27 27 28 28 28 28 27 27 27 26 26 26 27 27 26 25 23 22 20 18 17 17 16 15 15 15 15 15 16 17 18 19 19 20 20 21 21 21 20 20 19 19 20 20 20 22 24 25 27 28 30 35 38 45 58 71 80 86 89 87 80 70 67 67 63 64 69 73 70 63 57 52 49 45 41
23 19 18 20 21 22 22 22 21 19 19 19 18 17 15 15 16 18 21 23 24 26 28 29 30 31 30 29 29 29 28 27 26 26 25 24 21 20 19 18 18 17 17 16 15 15 15 15 16 16 17 18 18 19 19 20 20 21 20 20 20 19 19 19 19 20 21 22 23 25 27 29 31 36 43 53 62 66 69 72 66 69 82 85 79 75 70 68 71 76 79 77 70 64 61 55 49
18 16 16 18 20 21 22 23 23 20 20 20 20 19 17 16 17 17 17 19 20 23 26 29 32 31 29 28 29 28 26 25 23 22 21 21 19 18 17 17 16 16 16 16 16 16 16 16 17 17 18 18 19 19 20 20 20 20 19 19 19 18 19 20 20 20 21 22 23 25 28 31 33 38 46 52 56 58 56 52 45 45 62 82 90 83 73 71 74 76 81 87 85 78 71 65 59
18 16 15 16 18 20 21 22 23 22 22 22 20 19 19 18 18 17 16 17 20 20 21 25 29 28 26 27 28 27 25 23 21 20 19 19 18 17 17 17 17 16 16 16 16 16 17 17 17 18 18 18 19 19 19 20 20 19 18 18 18 18 19 19 20 20 21 22 24 28 32 34 36 41 46 44 42 47 48 43 42 40 45 62 78 78 73 75 75 72 77 86 93 89 79 74 68
21 19 18 17 18 19 21 22 23 24 25 24 22 21 20 19 19 19 17 18 21 20 18 20 22 23 22 23 25 24 23 22 20 20 19 18 18 18 18 17 18 17 17 17 17 17 17 17 18 18 19 19 19 19 20 20 19 18 18 18 18 19 19 19 21 21 22 24 29 33 36 38 38 41 48 47 42 47 48 43 42 41 44 59 73 75 75 76 71 66 71 81 90 92 85 78 74
22 22 21 19 18 20 21 23 25 26 27 26 25 24 23 20 19 19 20 20 20 18 18 19 20 20 20 20 21 22 21 20 20 19 19 19 18 18 18 18 18 18 18 18 18 18 18 18 19 19 19 19 19 20 19 19 19 18 18 18 19 20 21 23 26 27 29 30 34 38 40 42 41 46 61 62 53 55 57 52 49 47 50 70 89 89 82 79 75 70 71 77 81 84 82 77 74
26 26 25 23 21 22 23 25 27 28 28 27 26 26 25 23 21 20 20 20 20 19 20 20 20 19 19 19 19 20 20 19 19 19 18 19 19 18 18 18 18 19 19 19 19 19 19 19 19 19 19 19 18 19 19 19 19 19 20 21 24 27 30 33 35 35 37 36 39 43 44 44 42 55 81 82 68 73 78 66 55 55 61 79 97 98 89 86 82 77 72 69 68 69 74 75 73
28 28 26 23 22 23 24 25 26 28 28 27 26 26 25 24 25 23 22 22 22 21 21 21 21 21 20 20 19 19 20 20 20 19 19 19 19 19 20 19 20 20 19 20 19 19 19 19 19 18 18 19 19 20 20 20 21 22 26 29 33 36 38 40 38 37 38 38 43 45 44 45 42 56 90 99 85 90 100 87 68 65 73 87 99 98 91 87 84 78 69 59 58 63 71 75 73
25 25 23 21 23 24 23 23 23 25 27 27 27 27 24 23 25 27 26 26 25 22 21 20 20 21 21 21 20 20 21 21 21 20 20 20 20 20 20 20 20 20 20 20 19 19 19 18 19 18 19 20 21 22 22 23 25 28 33 36 39 40 38 38 37 36 36 36 39 41 41 42 41 56 89 104 99 99 105 100 84 72 72 81 92 92 85 86 86 78 66 57 60 71 77 76 72
24 23 22 25 28 26 23 22 22 21 24 26 27 28 24 20 23 27 27 28 28 26 24 22 21 21 21 20 20 20 20 20 21 21 20 20 20 20 19 19 19 19 19 19 19 20 19 20 20 20 22 23 24 27 28 30 32 34 36 38 38 37 36 37 38 37 36 35 36 36 38 41 44 65 93 100 98 98 96 94 86 74 69 73 83 88 86 88 86 77 72 72 77 88 88 77 70
23 21 23 26 24 20 20 22 22 20 22 26 28 29 26 21 22 26 27 27 28 28 28 27 27 26 25 24 23 21 21 20 19 19 20 19 19 19 19 18 19 19 20 21 21 22 22 23 24 25 27 29 30 33 34 35 36 35 36 37 37 37 37 38 39 38 37 37 37 37 39 42 45 67 97 101 96 98 96 96 96 88 81 82 90 95 94 91 87 86 90 91 94 98 93 79 71
23 22 22 22 19 16 17 20 21 22 22 25 27 28 28 26 24 23 24 26 26 26 28 29 30 30 30 30 29 28 27 25 24 23 23 23 22 23 23 23 23 23 24 25 26 27 28 28 30 31 32 32 34 35 35 36 36 35 36 37 37 38 38 39 39 38 38 38 40 41 43 46 43 54 85 103 100 99 100 100 103 99 92 92 98 101 99 95 94 98 100 97 99 100 91 81 80
23 23 22 20 18 17 16 17 20 22 21 22 25 27 28 29 27 24 24 25 24 25 27 28 29 30 30 31 31 31 31 31 30 29 29 29 29 30 30 30 30 30 31 32 32 33 33 33 33 34 34 34 34 34 35 35 35 35 36 37 39 40 39 40 39 38 41 41 42 45 46 51 49 47 68 96 102 99 100 99 100 101 97 96 99 99 99 99 98 100 101 99 98 94 88 88 93
22 22 22 21 20 19 18 19 22 23 23 23 24 25 28 29 29 28 27 26 25 26 28 29 30 30 30 30 31 31 31 31 31 32 32 32 32 33 34 34 34 35 35 35 35 35 34 33 33 32 32 33 33 34 35 35 36 37 38 39 42 42 40 41 43 43 44 43 45 48 49 52 53 50 65 92 104 100 96 95 97 100 99 98 100 99 99 99 99 98 100 99 95 92 92 96 98
22 22 22 22 22 22 21 21 23 26 27 26 25 25 28 30 30 30 29 28 27 28 30 31 32 32 31 31 32 32 32 32 32 32 33 33 33 33 33 33 34 35 35 35 34 33 32 32 31 31 32 33 35 37 38 39 40 40 40 42 41 40 41 43 46 47 45 45 46 48 52 52 54 67 83 94 102 102 96 95 98 99 99 100 100 98 97 99 100 99 99 98 96 97 99 100 100
Wind_Speed
30 31 31 31 30 31 30 30 30 30 30 29 28 27 27 28 28 28 28 28 27 28 27 27 26 26 25 24 24 23 22 22 21 21 21 20 20 20 21 22 22 22 21 20 20 19 20 20 21 22 20 20 23 26 28 31 29 29 35 38 36 37 41 41 42 43 44 47 50 51 53 54 54 53 49 43 38 34 32 32 30 29 28 28 27 29 33 35 35 36 34 30 25 21 17 14 12
29 30 31 31 30 30 30 30 30 30 30 29 29 27 27 27 27 28 28 29 29 29 29 29 28 28 27 26 24 23 23 22 21 21 21 21 22 22 22 22 22 21 21 21 21 21 22 23 23 23 22 24 27 28 30 30 29 30 34 37 37 38 40 41 42 44 46 48 50 52 52 52 50 46 41 37 33 31 31 30 28 27 26 25 25 29 32 33 34 34 32 28 24 20 16 14 14
28 29 30 30 30 30 30 30 30 30 29 29 29 28 28 27 28 28 29 29 30 30 30 30 30 30 29 27 25 24 24 24 23 23 23 23 23 23 22 21 22 22 22 23 23 23 24 25 25 24 25 26 28 29 30 28 29 31 33 36 38 39 40 41 43 45 48 49 50 50 49 47 43 39 35 33 31 31 30 28 26 25 24 22 25 29 30 32 33 32 31 28 24 21 17 15 16
27 28 29 30 30 30 30 30 30 30 30 30 29 29 29 28 29 29 29 30 30 31 31 31 30 30 28 26 26 25 25 25 25 25 24 24 23 22 22 22 22 23 24 24 23 23 23 23 24 24 26 27 28 29 28 27 29 32 34 36 36 39 41 43 44 47 48 49 49 47 44 40 36 34 32 31 30 30 28 25 24 23 21 21 24 27 28 30 31 31 30 27 24 22 19 18 17
27 27 28 29 29 30 30 30 30 30 30 30 30 30 29 29 29 30 30 30 31 31 31 30 29 28 27 27 27 28 28 28 27 27 26 26 25 24 23 23 23 24 24 23 22 21 19 19 20 22 25 27 28 29 28 29 32 35 38 39 39 41 42 43 45 47 48 48 45 42 37 34 32 32 30 30 30 28 25 24 24 21 19 20 23 25 27 28 29 30 30 28 24 22 20 19 17
27 27 28 28 28 29 29 30 30 30 30 30 30 30 30 29 29 29 29 30 30 30 30 30 29 28 28 28 29 29 29 28 26 26 25 25 24 22 22 21 20 20 19 20 20 20 19 19 22 24 26 27 28 29 30 31 34 38 40 41 40 41 41 43 44 46 45 43 39 35 31 31 31 30 29 29 28 25 24 23 22 19 17 20 21 23 26 26 28 29 30 29 25 23 21 19 16
26 27 27 27 27 28 28 28 28 29 28 28 28 28 28 28 28 28 28 28 29 29 29 29 29 28 28 28 28 27 26 24 23 23 22 20 20 20 20 19 17 16 16 18 20 21 22 23 24 25 25 26 27 29 30 32 35 37 37 38 39 40 42 43 43 43 40 37 32 29 29 31 30 29 29 28 26 24 23 22 20 17 16 19 20 22 25 24 26 27 29 29 27 23 20 17 14
24 25 26 27 27 27 27 27 27 27 27 26 26 26 25 25 25 25 26 26 27 27 27 27 27 26 26 25 24 24 23 22 20 19 19 18 18 19 19 18 18 18 18 19 20 21 22 22 22 22 23 25 27 29 31 32 33 35 36 38 40 41 42 42 40 37 34 30 28 28 30 30 29 28 27 26 25 24 23 21 18 16 16 17 18 21 23 22 24 26 27 28 28 23 19 16 13
20 22 24 26 27 27 27 27 26 26 25 25 24 23 23 22 22 23 24 24 25 26 26 25 25 24 23 22 21 20 20 20 19 19 19 19 20 21 20 19 19 20 20 21 23 24 25 25 25 25 26 28 29 30 31 32 34 36 38 39 40 40 39 36 33 30 28 27 27 29 30 29 29 27 26 25 24 23 21 20 17 15 15 17 17 19 21 21 22 23 25 26 28 24 18 14 11
15 17 19 21 24 27 27 26 26 25 24 23 22 21 21 20 20 21 22 23 23 23 24 23 23 22 20 19 18 18 17 18 19 21 22 21 22 23 24 24 24 24 24 25 26 28 29 30 30 29 30 30 31 31 32 34 36 38 39 39 38 35 32 29 27 26 26 27 28 29 29 29 28 26 25 23 22 21 20 19 17 14 14 16 17 19 20 20 19 20 22 24 26 24 19 13 9
12 13 15 15 17 22 24 25 24 24 23 21 20 19 19 19 19 20 20 20 20 20 20 20 20 19 19 18 17 16 15 15 17 19 22 22 23 25 26 27 28 29 29 29 29 30 30 31 31 32 32 32 32 32 34 36 38 38 36 33 30 28 26 25 25 26 27 28 28 28 28 27 26 24 23 21 21 20 19 19 17 13 13 15 16 18 18 18 17 17 19 21 22 22 20 16 12
11 12 13 14 14 16 19 20 21 21 20 19 18 18 17 18 18 18 16 15 15 16 16 17 16 16 15 15 16 16 16 15 16 17 20 22 23 25 26 27 28 30 31 31 30 30 31 32 33 33 33 33 33 34 36 36 34 31 28 26 24 24 24 25 25 26 27 27 27 27 26 25 23 22 20 19 19 19 19 19 17 13 12 14 15 17 17 15 15 16 17 18 19 19 18 17 16
11 12 13 13 13 14 15 16 17 17 17 16 16 16 15 15 15 14 12 10 11 12 13 14 13 13 13 13 14 15 16 16 17 18 19 21 23 25 26 26 27 28 29 30 30 31 32 33 32 32 32 33 33 33 32 28 25 23 22 22 23 23 24 25 25 26 26 26 25 24 24 23 21 20 19 18 18 19 19 18 16 13 11 13 15 17 18 16 14 15 15 15 17 17 16 16 16
12 13 13 13 13 13 14 14 14 14 14 14 14 14 13 13 12 11 9 8 9 10 12 13 13 14 14 14 14 14 15 16 17 18 19 21 23 25 26 27 28 29 30 30 31 31 31 31 30 30 30 29 27 25 22 21 20 20 21 22 23 24 24 24 25 25 24 24 23 23 22 21 20 19 18 17 18 18 19 18 16 13 11 12 14 15 17 17 14 14 14 14 15 15 15 15 15
12 13 14 13 13 12 12 12 12 12 12 13 13 13 13 12 11 10 9 8 8 10 11 12 13 14 14 14 14 14 15 15 16 17 18 20 22 23 25 26 27 28 28 28 28 28 28 28 26 25 23 21 19 18 17 18 18 19 20 21 22 23 23 23 23 23 22 22 21 21 21 20 19 19 18 18 18 17 18 17 15 13 10 10 11 12 14 15 13 12 12 12 13 13 13 14 14
13 13 14 13 12 11 10 11 11 10 11 12 13 13 12 11 10 10 9 9 9 10 11 12 13 14 14 15 15 16 16 16 17 18 19 20 21 22 23 24 24 25 25 25 25 24 22 20 18 16 15 15 15 15 16 17 18 19 20 20 21 21 21 21 21 21 20 20 20 20 20 20 19 19 19 18 18 17 16 16 15 12 10 10 10 10 11 12 11 9 9 9 10 10 11 12 13
13 13 13 12 12 11 9 9 9 9 11 11 12 12 12 11 11 11 11 11 12 12 13 14 14 15 16 16 17 17 17 18 18 19 20 20 21 21 21 21 22 21 21 20 18 16 14 12 12 12 12 13 13 14 15 16 17 18 19 19 20 20 20 19 19 18 18 18 19 19 20 20 20 20 19 19 18 17 15 15 15 13 10 10 11 11 10 10 9 9 8 7 8 8 9 10 11
11 13 12 12 12 10 9 8 8 8 9 10 11 11 12 12 12 13 13 12 12 13 13 13 14 14 15 16 16 16 17 17 17 17 17 17 17 17 17 17 16 15 14 13 11 10 9 9 10 11 11 12 13 14 15 16 17 17 18 18 17 17 17 17 18 18 19 20 21 22 22 22 22 22 21 19 18 17 15 14 14 13 11 10 10 11 11 11 9 8 8 8 8 8 9 9 10
6 12 13 12 10 9 9 8 7 7 8 9 10 11 12 13 14 13 12 10 10 10 11 11 12 13 13 14 14 14 14 13 13 12 12 11 11 11 12 11 11 10 9 8 7 7 8 9 10 10 11 12 12 13 15 15 16 15 15 15 15 16 17 19 20 21 22 23 23 24 25 25 24 23 23 21 20 18 17 15 14 13 13 11 11 11 12 12 11 8 7 8 9 10 10 10 10
2 7 12 12 10 9 9 9 8 7 7 8 10 11 12 12 12 11 9 8 8 8 8 9 10 10 10 10 9 9 8 8 7 6 6 6 6 7 7 7 7 6 6 6 7 8 8 9 9 10 10 11 12 13 14 13 13 13 14 16 17 19 20 21 22 23 24 25 25 25 26 26 26 26 25 24 22 21 19 17 15 14 14 13 12 11 11 12 13 12 10 9 9 9 10 11 11
6 3 9 11 11 10 10 9 8 6 6 7 8 8 7 7 6 5 5 5 6 7 7 7 7 6 5 5 4 3 3 2 2 2 2 3 3 3 4 4 5 6 6 7 7 7 8 8 8 9 10 11 11 12 12 13 14 15 17 18 19 20 21 22 23 24 25 26 26 26 27 28 28 28 28 27 26 24 22 19 17 16 14 14 14 13 13 13 14 14 14 14 12 11 11 11 12
8 4 4 7 10 11 10 8 7 6 6 8 8 5 4 3 3 2 2 3 5 6 6 5 5 5 4 3 2 1 0 0 1 1 1 1 2 3 3 5 6 6 6 6 6 6 6 6 7 9 10 11 11 13 14 15 16 17 18 19 19 20 21 22 23 25 26 27 28 28 28 30 30 31 31 29 28 26 25 23 22 20 17 15 14 13 14 14 14 15 16 17 17 16 15 14 14
13 8 7 8 9 10 8 7 7 7 7 7 7 6 5 3 3 3 4 6 7 7 7 7 6 6 5 4 3 1 1 1 2 2 3 3 3 4 5 5 6 5 5 4 4 4 5 7 9 10 12 13 15 15 16 16 17 17 18 18 19 20 21 22 23 24 25 27 28 29 29 29 30 32 31 29 28 28 27 27 26 25 23 21 18 15 13 13 13 14 14 16 17 18 18 18 18
18 11 9 10 9 8 8 8 9 9 9 8 7 7 6 5 6 7 8 9 8 7 7 6 5 5 4 3 2 1 2 3 4 4 5 4 5 5 5 5 4 3 2 2 4 6 8 10 12 14 16 16 16 16 17 17 17 17 17 18 19 20 20 21 22 23 23 25 27 27 26 27 27 29 30 28 28 29 29 29 29 29 29 28 27 25 23 21 19 16 14 13 13 15 16 18 18
22 15 10 10 9 8 9 10 11 11 11 9 7 7 8 8 8 9 9 9 8 7 6 4 3 3 2 2 1 1 2 4 5 5 5 5 5 4 4 2 1 2 4 6 8 11 14 15 17 17 17 16 16 17 17 18 17 17 18 18 19 20 21 21 22 22 23 24 25 25 25 25 27 28 27 26 26 29 30 30 30 30 30 30 30 31 32 33 32 30 26 21 16 13 13 15 17
24 19 13 10 9 9 10 12 12 12 12 11 7 7 9 8 8 9 9 8 7 6 5 3 2 1 1 1 1 1 1 2 3 4 4 3 2 1 1 2 4 6 9 12 15 17 18 18 18 17 16 16 16 17 17 18 17 18 18 19 20 21 21 22 23 23 24 24 25 27 28 27 27 26 24 23 24 26 28 29 30 30 30 29 30 31 33 36 37 37 37 35 32 27 21 16 14
25 22 17 11 8 8 10 12 13 13 13 10 6 6 8 8 8 7 7 7 7 6 4 2 1 1 1 2 3 4 4 4 3 2 1 1 2 4 5 7 10 13 15 18 19 20 19 18 17 16 16 16 16 17 17 17 17 17 18 19 20 21 22 23 24 24 24 24 25 27 29 29 30 26 20 19 20 21 24 26 28 29 29 29 29 30 33 35 38 40 41 43 44 44 41 36 27
25 23 20 15 9 7 8 11 13 15 14 10 6 4 5 6 5 5 5 6 6 6 4 2 1 1 2 4 7 7 7 6 6 5 5 6 7 9 11 14 16 18 19 19 19 19 18 17 16 15 15 15 15 16 16 16 16 16 17 18 19 20 21 23 23 24 24 24 24 25 26 28 30 28 22 18 17 17 19 22 26 29 29 28 28 30 32 34 38 40 43 45 47 49 50 50 47
23 22 20 17 13 10 9 11 14 15 14 11 7 6 4 3 3 3 4 5 6 6 4 3 3 4 6 8 9 10 10 10 10 10 11 12 14 15 17 18 18 18 18 18 17 17 16 15 14 14 14 14 15 15 15 15 15 15 16 17 18 19 21 22 23 23 23 23 23 24 25 26 27 27 24 21 17 15 16 18 23 28 30 28 27 29 31 33 35 38 40 42 44 47 49 51 53
19 20 19 17 15 13 13 14 16 16 13 11 8 7 4 2 2 3 4 6 6 6 5 5 5 7 9 11 12 13 14 15 16 16 17 18 18 18 18 17 17 17 16 16 15 14 13 13 12 11 12 13 14 14 15 15 15 15 15 15 16 18 21 23 22 22 23 23 23 24 25 25 25 25 24 22 20 17 15 14 16 22 27 28 26 27 29 30 33 35 37 38 40 43 45 48 50
16 17 17 17 16 15 15 16 17 16 13 9 7 4 1 1 3 4 6 7 7 7 7 7 7 9 12 14 15 16 17 18 19 19 18 18 17 16 15 15 15 16 16 15 13 12 11 10 10 9 9 11 13 13 14 14 14 14 14 14 14 17 20 23 22 22 22 23 23 24 24 25 25 25 23 21 21 19 17 14 13 15 21 24 23 24 26 27 30 32 35 37 38 40 42 44 46
13 14 14 15 15 16 17 18 17 15 12 9 6 3 2 4 6 6 7 7 7 7 7 7 8 10 13 15 16 17 17 17 17 16 15 14 13 13 13 13 14 14 13 12 10 9 8 8 7 7 7 10 11 12 13 14 14 13 13 13 13 15 19 21 22 22 22 23 23 24 25 25 26 26 24 22 19 19 18 17 15 16 20 20 18 20 22 23 26 30 33 36 38 39 40 42 43
9 11 11 12 12 13 17 19 18 14 11 9 7 5 5 7 7 7 6 6 6 5 5 6 8 10 12 13 14 15 15 14 14 13 11 10 9 9 10 11 11 10 9 8 8 8 8 7 6 6 7 9 10 11 12 14 14 13 12 13 13 15 17 19 21 22 22 23 23 24 25 25 26 26 26 25 22 19 18 19 19 19 20 17 14 16 18 20 23 27 31 35 37 39 41 42 42
7 7 8 9 10 11 14 18 18 14 10 8 7 6 7 8 8 7 6 6 6 5 5 6 7 8 8 9 10 11 11 10 10 9 8 8 7 7 7 7 6 6 7 7 8 8 8 8 7 7 8 9 10 11 13 14 14 14 14 14 14 15 16 19 20 21 22 23 23 24 25 26 26 26 26 26 25 23 21 21 22 23 21 16 12 13 14 17 21 25 29 32 35 38 40 41 43
7 5 5 6 7 9 11 14 15 13 10 8 8 7 7 9 9 9 8 8 7 7 7 8 8 7 6 5 6 7 7 6 5 5 5 5 5 4 4 4 5 6 7 7 7 8 8 8 8 8 9 10 11 12 13 14 14 14 15 15 15 16 17 19 21 22 22 23 24 25 25 26 26 26 25 25 25 25 25 23 23 24 23 18 13 11 11 15 19 24 28 31 34 36 38 40 41
7 5 3 3 5 6 8 10 11 11 9 8 7 6 5 6 8 9 10 10 9 9 9 8 8 7 5 5 5 5 6 5 5 4 4 4 4 4 4 4 6 7 7 6 7 7 7 7 7 8 9 11 13 13 13 14 14 15 15 16 17 18 19 20 21 22 23 23 24 25 26 26 26 26 26 25 25 25 26 25 23 24 25 22 17 12 12 16 20 25 29 32 33 35 36 38 39
8 6 5 3 2 3 4 6 7 7 6 4 4 3 3 3 4 6 8 8 8 7 6 6 6 6 5 5 5 6 6 7 7 6 5 5 6 5 5 5 6 6 5 5 6 6 6 6 7 7 8 11 13 13 13 14 15 15 16 17 18 19 20 21 22 22 23 24 25 25 26 27 27 27 27 26 26 25 26 26 25 24 24 23 20 16 15 18 23 27 31 32 33 34 35 35 37
10 8 6 6 3 1 2 2 2 3 3 2 0 0 1 1 2 3 5 6 5 5 4 5 5 6 6 6 6 6 7 7 7 7 6 6 6 6 6 5 5 4 4 4 5 6 7 7 7 8 9 10 12 13 14 14 15 16 17 18 19 20 21 21 22 23 24 25 25 26 27 28 28 28 27 27 26 25 26 26 26 24 23 23 22 19 18 20 25 28 30 31 32 33 34 34 35
14 11 9 8 7 4 3 3 3 3 3 3 3 3 2 2 3 1 2 3 3 3 3 3 4 5 6 6 5 5 6 6 6 5 5 4 4 4 4 4 4 4 3 3 4 6 7 8 8 9 10 11 12 13 14 15 16 17 18 19 20 21 21 22 23 24 25 25 26 26 27 28 29 29 28 27 27 26 25 26 26 23 22 22 23 22 21 22 25 28 29 31 32 32 33 33 34
18 15 12 10 10 9 6 6 6 6 6 5 5 5 5 3 2 1 0 1 1 2 2 2 2 3 4 4 4 4 4 4 4 4 3 3 3 3 3 3 3 3 3 4 5 6 7 8 9 10 11 12 13 14 15 16 17 18 19 20 21 22 23 23 24 25 26 27 27 27 27 28 29 30 29 28 27 26 24 25 25 22 20 21 23 24 25 25 26 28 29 30 31 32 32 33 35
22 20 17 14 12 11 11 9 8 9 8 8 7 7 6 6 4 2 2 2 2 2 2 2 2 2 2 2 2 2 2 2 2 2 2 2 3 3 3 4 4 4 4 5 6 7 8 9 10 11 12 13 14 15 16 18 19 20 21 22 23 23 24 25 25 26 27 27 28 28 28 29 30 30 30 28 27 26 24 24 25 23 21 22 24 25 27 28 30 31 31 32 32 34 35 36 37
27 25 22 19 15 14 14 13 12 11 10 9 9 9 9 8 7 6 5 4 4 3 3 3 3 2 1 1 0 0 1 0 0 1 2 3 4 4 4 4 5 5 6 6 7 8 9 10 11 11 12 13 15 16 18 19 21 22 23 24 24 25 26 26 27 27 28 29 29 29 29 29 30 30 30 28 26 26 25 25 25 24 22 23 25 27 29 30 32 33 34 35 36 38 39 39 40
32 31 27 23 19 17 18 16 15 14 11 11 12 11 11 10 9 9 8 7 6 5 4 4 4 4 3 3 3 3 3 3 3 3 3 4 5 6 6 6 6 7 8 8 9 10 11 11 12 13 14 15 16 18 20 21 23 24 25 25 26 26 27 28 28 28 29 30 30 31 30 30 31 31 31 30 26 26 26 27 27 26 25 24 26 29 31 32 33 34 35 36 38 40 41 41 42
37 36 30 26 23 21 20 19 18 16 13 15 15 13 13 12 12 11 10 9 8 7 6 6 5 6 5 6 5 5 5 5 5 5 5 6 6 7 8 8 9 10 10 11 11 12 12 13 14 15 16 17 19 20 22 23 25 26 26 27 27 28 29 29 29 30 30 31 32 32 32 31 32 32 32 31 28 26 27 28 28 28 27 26 27 29 32 34 35 35 36 36 37 39 41 42 44
41 38 32 29 27 24 22 21 21 19 16 18 19 17 16 14 13 13 12 12 11 9 8 7 7 7 7 7 6 6 7 7 7 7 7 8 9 10 11 11 11 12 13 13 14 14 15 16 17 18 19 21 22 23 24 26 27 27 28 29 29 30 30 31 31 31 32 33 34 34 34 33 33 34 33 32 29 27 27 27 29 30 29 28 28 30 34 36 37 36 36 36 37 39 42 44 46
41 38 33 31 30 27 25 24 24 21 18 21 23 20 18 16 15 15 14 14 13 11 10 9 9 10 9 8 8 8 9 10 10 10 10 11 12 12 13 14 14 15 16 16 17 18 18 19 20 21 23 24 25 26 27 28 28 29 30 30 31 31 31 32 33 33 33 34 35 36 36 35 35 35 34 32 30 27 27 27 30 32 32 31 30 32 35 38 39 38 37 38 39 40 42 45 47
40 37 34 32 31 30 28 26 26 22 21 25 26 22 20 19 18 19 16 14 14 14 13 12 13 13 11 10 10 11 12 13 13 13 14 14 14 15 15 16 17 18 19 19 20 21 22 23 24 25 26 27 28 28 29 29 30 31 31 32 32 32 33 33 34 34 35 35 37 37 37 37 37 36 35 33 30 28 27 28 30 32 33 32 32 34 37 39 41 41 41 40 40 42 44 45 47
41 37 35 33 33 31 29 28 27 24 27 31 28 23 23 23 22 21 17 15 17 18 16 15 16 15 14 13 12 13 15 16 16 16 16 17 17 17 18 19 20 21 22 23 23 24 25 26 27 27 28 29 30 30 31 31 32 32 32 32 33 33 33 34 35 35 35 36 38 39 39 39 38 38 37 33 31 29 29 30 32 34 34 33 34 35 37 40 42 44 44 43 43 44 46 47 48
43 40 37 36 34 33 31 30 28 27 33 36 30 25 27 27 24 22 20 20 21 20 18 17 18 18 17 16 15 16 18 18 18 18 19 20 20 21 21 22 23 24 25 26 27 27 28 28 29 30 31 31 32 32 32 33 33 33 33 33 34 34 34 35 36 36 37 37 39 40 40 41 40 40 38 34 32 33 33 34 35 36 35 35 36 36 37 40 42 45 46 46 46 47 49 51 50
46 43 41 39 37 35 33 32 31 32 37 41 34 29 31 30 25 24 23 23 23 22 21 21 22 22 20 20 18 19 20 22 22 22 22 22 23 24 25 25 26 27 28 29 29 30 30 31 31 32 32 33 33 33 33 33 34 34 34 35 35 35 35 36 36 37 38 38 40 40 41 41 40 40 37 32 33 35 36 37 38 38 37 38 40 39 39 41 43 45 47 48 49 49 52 53 52
51 49 47 44 40 38 37 36 37 37 40 44 37 31 34 33 28 27 24 23 25 27 26 26 26 25 24 24 23 22 23 25 26 25 25 25 26 27 28 29 29 30 30 31 32 32 33 33 33 34 34 34 33 33 34 34 35 36 36 37 37 37 37 37 37 37 37 38 39 40 40 41 41 40 36 32 34 35 35 38 40 39 39 41 41 41 41 43 45 47 49 51 50 51 54 54 52
55 54 51 46 41 40 41 40 41 40 41 43 38 35 37 35 30 29 27 28 30 30 30 29 29 28 28 28 27 26 27 28 29 29 28 28 29 30 31 31 32 32 32 33 33 34 35 35 35 35 35 35 35 35 35 35 37 38 38 39 39 38 38 38 38 38 37 37 37 38 39 40 41 41 37 34 35 36 37 39 41 42 42 42 41 42 44 45 47 49 51 52 52 54 55 53 52
60 58 52 46 44 45 44 43 43 42 41 41 40 39 40 37 33 33 32 32 33 32 32 31 30 30 30 31 30 30 30 30 31 32 31 31 32 33 34 34 34 34 35 35 35 35 36 36 36 36 36 37 36 36 37 38 39 40 40 41 40 40 39 39 39 38 37 36 37 38 39 40 42 40 36 34 35 37 39 41 43 44 44 41 41 44 45 46 48 51 53 53 54 55 55 53 54
64 60 55 52 52 50 48 46 45 43 42 41 41 42 42 40 37 37 36 36 36 35 34 33 33 33 33 33 33 33 33 33 33 33 33 34 34 35 35 36 36 36 36 36 36 37 37 38 38 38 38 39 39 39 39 40 41 42 42 42 42 42 41 40 40 39 38 38 38 40 40 41 42 41 37 35 35 36 38 41 44 45 44 42 43 46 47 48 50 52 53 54 56 56 54 54 55
66 62 59 59 57 53 50 47 45 44 43 43 44 44 44 43 42 41 40 39 39 37 35 35 35 36 36 36 36 36 35 35 34 34 34 35 35 36 37 37 38 38 38 38 39 39 40 40 40 41 41 41 41 41 41 42 43 43 44 44 43 43 42 41 41 41 41 40 41 42 42 43 44 44 41 37 37 38 40 43 44 45 45 43 44 47 49 51 51 51 54 56 57 56 55 56 56
67 65 64 64 61 56 53 49 46 46 45 44 45 45 44 45 46 45 43 42 40 38 37 37 37 39 40 39 39 38 37 37 36 36 36 36 36 37 38 39 40 40 40 41 41 42 42 42 43 43 43 43 42 42 43 43 44 44 44 44 44 44 43 43 43 43 43 43 43 44 44 44 45 46 44 41 41 43 44 44 44 45 45 44 46 48 49 51 52 53 56 58 58 57 57 56 56
70 69 67 67 64 59 56 52 48 46 45 45 45 44 44 47 48 48 47 45 41 39 39 39 39 41 42 42 41 41 40 39 38 38 38 38 38 39 40 41 41 42 43 44 44 44 44 44 44 44 44 44 43 44 44 44 45 45 45 45 45 46 45 44 44 44 44 45 46 45 45 46 47 47 46 45 45 45 45 44 44 44 44 44 47 49 50 53 55 56 58 59 58 58 57 58 60
74 73 71 69 66 62 59 56 52 49 47 47 46 45 46 49 50 50 51 48 44 43 42 41 42 44 45 44 44 43 42 41 40 40 40 41 41 42 43 43 43 44 45 46 46 46 45 45 45 44 44 44 44 45 45 45 46 45 45 45 46 47 46 46 46 46 46 47 47 47 47 48 48 48 47 46 46 47 48 46 44 43 42 44 47 50 53 55 57 57 58 58 58 59 59 61 61
Wind_Direction
215 217 221 224 226 228 230 233 234 236 238 238 238 239 240 242 243 243 244 246 249 253 258 263 268 270 269 270 271 265 255 250 253 256 255 253 254 255 258 259 259 257 255 254 258 268 277 283 285 288 283 276 283 288 298 307 311 311 307 303 300 295 292 293 294 295 296 298 302 310 318 320 320 320 321 323 327 330 334 339 343 346 351 353 356 1 2 358 355 355 354 358 2 2 0 3 18
214 216 220 223 224 226 228 231 234 236 239 241 241 241 242 243 244 245 246 248 250 253 257 261 264 266 268 271 269 259 248 246 251 257 258 259 259 260 260 260 259 259 260 262 266 273 280 285 287 286 283 281 282 286 295 304 307 305 303 298 294 291 288 287 290 294 299 304 311 317 318 318 318 320 322 326 329 333 337 341 344 349 354 357 3 5 4 0 359 360 360 5 9 8 9 16 30
213 215 219 221 222 223 225 228 231 234 237 240 241 242 243 244 244 246 247 248 251 253 256 259 261 263 265 267 262 254 247 248 255 259 262 262 262 262 261 259 259 262 266 269 271 277 282 285 285 284 283 282 281 284 291 297 297 295 296 293 290 290 290 291 295 302 309 314 316 316 316 317 319 321 325 327 331 335 338 342 347 352 356 3 10 7 4 3 2 5 7 13 16 19 27 36 42
211 214 217 220 221 221 223 226 229 231 234 236 238 241 243 243 243 245 247 248 249 251 253 256 258 260 260 260 255 250 249 253 260 262 262 261 259 258 257 258 261 265 268 271 274 280 285 286 285 283 282 279 278 281 285 286 284 286 294 297 295 296 298 302 306 312 315 314 314 315 316 317 320 323 326 329 333 336 340 344 349 353 359 8 12 8 5 4 5 10 15 19 23 30 44 52 54
213 215 217 219 220 221 223 226 229 230 231 234 237 239 242 243 243 244 246 247 248 250 251 252 255 257 256 254 252 251 253 259 263 263 260 259 258 258 260 262 265 267 269 272 278 284 286 289 286 280 278 278 281 283 281 277 278 287 297 303 303 304 306 309 311 312 312 312 313 315 316 318 322 325 328 331 335 338 342 346 350 354 1 12 12 8 6 6 9 15 21 24 28 38 52 61 68
217 218 220 221 222 223 225 228 230 232 233 236 239 241 243 245 246 246 247 248 249 250 251 253 254 255 255 254 254 255 259 262 263 262 262 263 267 269 272 275 276 275 274 276 281 281 280 282 280 278 279 281 285 286 282 281 286 294 300 302 304 306 308 309 310 310 310 312 314 315 317 321 323 327 331 334 337 339 343 347 352 353 360 11 14 10 6 9 14 17 25 29 33 41 53 66 77
220 221 223 224 225 226 226 228 231 233 234 236 240 243 245 247 249 250 250 251 252 252 253 254 255 255 255 255 256 258 260 260 259 260 261 263 271 278 280 282 285 284 282 280 279 279 280 280 279 280 279 278 281 285 289 293 296 299 300 302 305 307 308 308 309 309 311 313 315 316 319 323 326 330 333 335 338 340 344 349 354 351 357 8 12 10 7 14 18 20 26 31 36 42 53 67 76
220 222 223 225 226 227 227 227 229 231 233 235 238 241 244 247 251 253 255 256 257 257 257 256 256 256 255 256 257 258 258 257 255 254 256 253 254 265 272 274 274 273 274 274 273 276 279 281 282 285 286 285 289 293 297 299 299 300 302 304 306 307 307 308 309 310 314 317 317 319 322 325 328 331 334 336 340 343 346 350 354 350 353 3 8 11 11 17 21 23 28 32 38 42 51 65 72
214 219 223 225 227 227 227 228 228 230 232 234 236 239 242 246 251 255 258 259 260 260 259 257 256 255 254 254 254 256 256 253 247 242 245 245 241 247 255 257 259 260 262 263 265 268 274 281 288 292 295 296 298 299 299 299 299 301 303 304 305 306 307 308 310 314 318 319 319 320 324 327 329 332 335 339 345 348 349 351 354 349 351 2 8 10 12 20 23 25 29 33 37 39 46 61 71
209 213 218 223 228 229 228 228 229 230 231 234 236 239 242 245 249 252 256 258 258 258 257 255 253 251 250 249 249 252 253 252 246 241 241 241 241 245 250 253 256 260 262 264 267 270 275 282 289 294 297 298 298 298 298 298 299 300 302 303 305 307 309 312 315 319 320 320 320 322 325 328 331 334 338 345 350 353 354 354 354 350 352 0 7 9 11 20 24 25 31 36 37 37 42 50 61
210 212 210 212 219 226 229 230 230 231 232 234 237 240 243 246 248 250 251 253 253 251 251 250 249 247 247 246 247 249 252 253 251 248 246 245 246 248 252 256 260 264 267 270 273 275 278 283 289 293 295 296 296 296 296 297 298 299 302 305 308 310 314 317 319 320 320 320 322 324 327 331 334 339 344 351 356 358 358 358 357 353 356 0 5 9 11 20 24 24 31 37 38 38 37 38 41
211 214 211 206 204 210 221 227 231 232 232 234 236 241 247 250 252 251 250 249 249 247 245 244 244 246 248 248 249 252 254 256 257 255 252 250 251 253 256 259 261 264 268 272 276 278 281 285 288 291 292 293 293 294 295 296 299 302 306 310 312 315 318 319 320 320 321 323 325 328 332 336 340 346 353 357 0 2 2 4 4 359 360 3 6 9 10 20 25 23 30 37 39 38 34 30 31
212 214 214 212 206 203 209 219 226 230 232 236 240 247 252 256 257 254 251 247 245 247 246 244 243 245 248 250 254 258 260 261 262 262 260 257 256 259 263 266 268 270 273 276 279 282 284 286 287 289 291 292 293 294 296 299 304 309 311 314 316 318 320 322 323 324 325 327 330 334 338 342 347 353 359 2 3 5 5 8 9 5 3 5 8 6 6 16 23 23 29 35 37 35 30 27 27
216 216 215 214 213 209 208 213 221 229 236 242 247 253 257 259 258 254 248 243 241 243 245 246 247 249 252 257 262 266 268 269 269 269 268 267 265 265 267 270 272 274 276 278 280 282 284 287 289 291 292 293 295 297 302 308 312 314 314 316 319 321 323 325 326 327 329 332 335 339 342 346 350 356 2 4 4 6 6 8 11 9 4 7 8 1 0 8 14 20 24 29 29 25 23 22 23
223 220 217 214 214 216 216 217 222 230 240 248 253 255 254 252 250 248 245 242 243 246 249 252 254 259 264 268 272 274 275 275 276 275 275 274 273 272 271 272 273 275 277 280 282 285 288 290 291 293 294 297 302 308 312 314 315 317 319 322 324 325 328 329 331 332 334 336 339 341 344 348 352 356 1 3 3 4 5 6 10 9 1 1 4 357 357 359 5 14 18 22 19 14 13 13 13
226 224 219 215 213 216 223 226 229 236 244 250 253 252 248 245 243 244 247 249 252 254 257 260 264 268 272 275 278 278 277 276 278 279 279 278 278 277 277 277 278 280 282 284 286 288 291 292 295 299 303 308 314 317 317 318 320 323 327 329 330 332 333 334 335 336 338 340 343 345 348 351 355 357 358 359 359 0 2 2 6 8 360 351 348 348 351 353 1 10 11 16 10 4 0 360 1
223 225 224 218 211 210 218 227 234 240 246 249 251 251 248 247 247 250 255 259 261 263 263 265 267 270 272 275 277 277 276 276 278 280 281 280 280 280 281 282 283 285 286 288 290 291 293 298 304 310 314 318 320 321 323 326 330 333 335 336 336 338 340 341 345 349 354 358 1 3 4 5 4 3 1 359 359 359 1 1 3 5 0 348 341 338 339 346 4 10 7 11 5 356 347 346 350
221 220 224 223 214 208 212 220 231 241 247 252 254 253 251 249 250 252 256 260 262 264 264 265 267 269 272 274 276 277 278 279 281 282 282 282 282 284 286 287 289 290 290 290 292 295 302 311 315 318 322 324 326 329 334 338 340 341 342 343 347 352 358 4 11 15 19 20 22 22 21 20 18 16 12 8 5 3 3 4 3 4 359 350 341 335 329 331 347 3 8 13 9 1 351 344 341
217 214 216 220 215 211 217 215 218 232 243 250 253 252 250 248 247 249 252 256 260 261 261 263 266 270 273 276 277 279 280 282 283 282 284 287 291 293 294 294 293 292 293 295 303 312 317 320 322 326 329 333 338 343 346 347 349 352 358 6 13 21 24 27 28 29 30 30 30 30 30 29 28 27 24 21 17 12 9 7 5 3 359 354 347 337 330 324 321 327 345 1 3 358 352 349 343
97 208 211 210 211 214 223 222 216 219 232 241 244 244 242 241 241 244 249 255 260 262 263 264 265 267 269 271 274 277 280 283 286 289 294 298 298 295 293 292 293 298 307 312 316 320 322 325 330 335 340 347 353 356 358 3 12 21 28 33 35 35 34 34 34 34 35 34 33 33 33 33 33 32 32 32 29 25 21 15 9 3 358 354 350 344 336 329 322 314 310 318 331 335 335 337 338
63 164 205 204 208 216 224 228 224 216 216 216 215 218 223 225 227 232 245 257 265 264 259 254 250 247 244 248 255 266 279 292 303 304 302 294 289 289 294 303 311 317 318 319 320 324 329 334 341 350 359 6 10 17 27 37 43 44 44 42 41 39 39 39 39 39 37 36 36 36 35 36 37 37 38 37 36 34 32 28 21 11 2 354 348 343 337 330 325 319 311 305 304 305 308 315 321
46 84 157 181 197 210 216 221 226 214 193 182 174 166 166 176 181 188 207 222 239 242 229 213 200 189 186 185 171 156 123 9 330 300 289 295 304 310 315 320 320 319 316 318 325 332 342 352 6 16 24 34 44 52 56 56 52 49 46 44 43 43 43 43 42 40 38 39 41 42 41 42 42 41 38 38 39 40 41 41 37 31 24 13 360 347 339 331 324 319 313 307 302 299 295 295 299
37 62 97 134 171 190 196 202 209 188 161 149 143 132 128 137 146 155 169 188 204 207 190 174 168 164 160 147 127 103 44 341 314 305 304 306 313 315 315 316 313 313 318 328 343 3 19 31 39 47 57 64 68 67 62 57 52 48 46 46 45 45 44 42 41 40 41 44 46 46 46 45 42 38 36 39 43 46 48 48 46 45 42 38 31 20 6 352 338 327 315 306 301 299 297 293 291
42 59 97 127 149 164 174 186 184 160 137 126 127 126 135 152 158 167 178 187 191 182 168 160 160 160 152 132 108 54 345 319 309 304 302 305 308 310 310 307 305 314 345 28 47 54 57 62 68 73 76 75 72 67 60 54 50 47 46 46 46 45 42 40 39 41 44 44 43 41 39 36 32 32 35 41 45 48 51 52 51 51 50 49 47 44 41 35 26 13 354 331 310 298 293 290 289
47 57 88 119 133 152 170 175 167 150 130 121 126 138 155 165 166 172 180 183 175 156 140 136 145 157 155 147 139 344 322 309 304 300 300 303 303 304 302 297 318 82 84 79 76 77 79 82 82 81 79 75 70 62 55 49 46 44 44 44 44 42 40 39 39 39 39 37 35 33 30 28 27 31 38 43 49 53 54 55 54 53 52 51 50 50 49 47 44 40 33 23 6 340 311 294 286
45 55 70 99 121 147 169 168 156 139 120 111 123 154 168 165 161 165 169 167 152 130 116 117 142 167 187 197 169 87 14 341 327 316 310 307 301 294 145 123 110 99 93 90 90 90 90 88 84 81 78 72 64 55 49 45 43 43 44 43 43 41 40 39 38 36 35 34 34 33 33 33 32 35 44 47 51 55 53 51 51 50 50 48 47 47 47 48 47 46 44 41 36 29 17 354 321
42 53 64 81 111 145 166 162 143 121 105 98 112 155 163 152 148 155 156 151 138 123 116 125 159 176 188 160 115 94 80 67 55 45 48 91 115 119 119 113 106 100 98 97 97 96 93 88 83 80 76 68 58 50 46 44 44 44 44 43 43 41 40 39 38 37 36 35 34 34 34 36 34 36 48 52 49 50 48 47 46 44 44 41 41 43 45 48 50 50 49 47 45 43 39 34 22
40 49 62 74 93 125 156 153 129 107 96 92 96 119 139 144 148 150 145 142 136 125 115 113 131 134 127 115 103 96 93 93 96 101 106 111 112 111 110 107 104 103 102 102 101 99 93 85 81 79 73 64 54 48 45 44 44 45 43 42 42 41 39 37 35 35 34 33 31 30 29 32 34 36 47 51 46 45 42 43 42 39 37 35 37 42 47 51 53 52 50 48 46 45 44 42 39
41 45 57 69 80 94 115 122 108 93 85 82 77 70 78 113 141 145 143 144 137 119 103 99 108 115 114 107 101 100 103 105 107 108 107 107 107 107 106 105 104 103 103 103 103 99 89 78 77 77 69 59 51 46 44 43 42 41 40 41 42 40 35 30 28 28 28 28 27 26 24 24 27 32 39 39 36 39 36 37 39 38 36 35 39 46 49 51 52 51 49 46 44 42 41 40 40
43 42 49 59 68 79 86 89 86 79 72 68 67 62 52 77 143 160 155 147 132 115 108 109 107 108 107 102 101 102 104 105 105 106 106 106 106 106 106 104 103 101 100 99 98 91 78 70 71 72 65 53 45 43 42 40 39 38 39 40 39 35 27 23 22 22 23 23 23 23 21 19 19 22 29 31 29 27 21 22 29 31 33 35 40 45 45 45 46 45 43 41 39 37 36 35 36
44 39 39 49 54 61 69 72 72 70 63 55 56 56 6 198 165 156 146 135 124 119 119 115 107 105 106 103 103 104 105 106 106 107 108 109 109 109 109 109 106 103 100 95 90 82 70 63 61 61 56 44 38 39 39 38 37 37 36 34 31 25 20 19 19 19 18 18 19 19 19 19 17 16 19 22 25 24 16 7 1 2 10 21 32 35 35 38 38 37 34 32 31 31 31 30 30
44 41 32 37 45 50 58 63 64 65 60 52 56 78 161 157 140 135 131 126 123 125 127 122 112 107 106 106 105 106 107 107 107 108 109 110 111 112 113 112 109 105 98 90 81 74 70 64 55 49 43 33 33 36 34 32 30 29 26 23 18 12 10 13 16 16 14 14 14 14 15 16 17 15 15 14 15 17 15 7 354 340 343 359 18 22 24 29 31 29 26 24 23 22 23 24 24
36 47 35 30 37 45 54 60 63 63 58 54 59 82 114 120 123 127 122 115 120 127 136 135 123 114 111 109 108 108 108 108 106 105 104 104 105 108 110 111 108 99 84 74 72 71 69 66 57 52 46 36 33 32 25 23 20 16 11 7 4 2 3 7 11 12 11 10 10 10 11 13 14 15 14 13 11 8 6 6 2 353 348 357 11 15 19 24 25 24 21 19 18 16 15 16 17
11 41 45 32 29 40 52 59 64 67 63 59 63 71 86 99 110 116 108 100 107 123 139 144 133 118 111 109 110 112 113 112 110 108 106 104 102 103 105 106 98 84 75 75 76 71 67 67 67 61 53 39 30 24 19 19 19 14 9 5 3 3 2 4 7 9 8 7 7 7 8 8 10 11 12 12 11 6 2 360 2 2 1 2 6 10 18 22 21 19 15 13 12 11 10 10 11
343 8 41 41 29 35 50 58 64 69 67 60 61 64 72 87 99 105 104 101 104 116 130 138 136 123 110 102 104 111 114 112 109 107 106 103 103 100 92 86 84 85 85 82 74 68 66 66 64 58 49 34 24 18 18 19 20 17 14 10 8 6 4 4 5 5 5 4 3 3 4 4 5 6 7 8 8 7 3 358 356 359 360 359 357 360 10 14 12 10 6 4 3 4 5 6 7
314 326 355 42 40 32 45 59 65 69 68 54 49 52 60 75 92 105 110 112 115 121 125 129 131 126 118 108 103 106 107 104 100 94 85 79 84 87 80 81 92 93 86 76 69 64 60 54 43 39 33 23 18 16 17 16 16 14 12 9 7 4 3 2 1 0 360 359 359 359 359 0 0 0 2 3 3 4 4 0 355 353 353 352 347 342 351 360 1 358 356 354 353 355 357 0 3
287 296 310 330 56 51 40 56 70 76 75 58 37 33 45 55 80 105 116 122 127 130 129 124 122 123 119 113 106 102 100 100 99 94 87 82 82 81 80 84 92 93 83 71 62 52 41 29 17 12 9 10 12 13 13 12 11 10 8 6 3 0 358 356 355 354 354 353 354 354 354 355 356 357 357 358 359 360 1 1 358 354 352 352 346 333 333 344 348 348 347 347 347 348 350 354 359
270 271 283 291 281 152 114 73 81 98 108 120 160 25 70 29 26 84 109 122 129 133 133 130 126 126 122 114 105 98 95 94 93 91 89 89 89 85 79 77 76 73 67 54 40 27 20 17 10 6 4 5 7 7 7 7 6 5 3 360 357 355 353 351 349 348 348 348 349 349 349 350 351 352 353 353 354 355 356 358 357 356 355 356 353 343 332 333 338 341 343 345 346 346 347 349 353
260 259 260 270 273 250 193 183 192 186 176 172 183 191 194 263 307 352 86 110 124 131 142 150 142 131 125 116 108 97 91 88 83 78 73 72 75 75 68 61 54 46 36 21 9 8 11 15 14 9 5 2 1 0 359 359 358 358 355 353 351 349 347 345 344 343 343 344 345 346 346 346 347 348 348 349 349 349 351 354 355 357 359 359 359 354 345 339 338 340 343 344 345 346 346 347 348
256 254 249 249 258 262 242 213 206 205 207 201 197 200 202 217 261 287 254 153 152 158 177 194 175 146 129 120 115 105 92 83 74 63 52 43 37 34 28 24 23 14 5 356 353 358 1 2 3 0 357 355 354 352 351 350 350 349 348 347 344 343 341 340 339 339 339 340 342 343 343 343 344 345 346 345 344 345 346 350 353 355 360 1 360 359 355 351 349 347 346 348 349 349 348 348 347
254 251 246 242 242 251 253 244 231 219 213 214 213 215 214 209 209 212 223 224 221 222 222 231 224 194 152 124 115 106 99 86 70 52 26 8 356 354 350 349 348 347 346 343 344 348 348 349 351 351 348 346 346 344 343 342 341 341 341 340 339 337 336 336 336 335 336 337 339 341 341 340 341 343 344 342 340 339 339 343 347 349 352 356 357 358 358 358 358 358 356 356 357 355 352 350 348
254 251 246 240 235 238 246 247 247 243 231 225 222 221 221 219 213 209 216 225 232 242 251 258 256 246 237 210 153 42 63 63 26 335 322 316 312 313 316 317 322 326 329 332 335 339 340 340 341 342 341 339 338 337 336 335 334 334 334 334 334 333 332 332 332 332 333 335 336 338 338 338 339 340 342 341 337 334 333 334 338 340 341 347 352 354 355 356 358 359 357 356 355 353 351 349 347
254 250 245 241 234 233 238 239 243 250 250 240 234 230 227 226 223 217 219 226 230 239 251 260 266 269 273 275 276 282 283 281 281 285 288 292 294 297 299 303 308 314 318 322 326 330 331 330 331 333 333 332 330 330 330 329 329 329 329 330 329 328 328 329 330 330 331 332 334 335 336 336 336 337 339 338 333 328 328 328 330 333 332 335 343 348 348 348 350 351 351 350 349 348 347 346 345
251 249 245 242 238 234 236 238 240 243 245 246 246 240 234 232 231 227 224 228 229 231 241 252 261 265 264 268 274 277 280 282 282 279 277 282 287 291 296 301 304 306 310 314 317 320 320 321 322 324 324 324 324 324 325 325 325 326 325 325 325 325 326 327 328 328 329 330 331 333 334 334 335 335 335 335 330 322 322 325 327 329 327 325 330 337 339 339 339 341 344 345 344 344 343 343 342
249 250 248 245 242 238 237 239 241 239 237 244 247 243 240 239 239 238 235 236 236 231 235 244 250 254 256 261 270 276 280 282 282 281 279 282 287 292 297 300 301 302 304 308 310 312 313 315 316 317 318 318 319 320 321 322 322 322 322 323 323 323 324 325 326 327 327 328 329 331 331 331 332 333 332 331 327 320 319 325 328 328 325 321 319 323 328 332 334 335 337 339 340 340 340 339 339
248 251 251 249 246 243 240 240 242 241 238 242 245 243 243 243 241 242 241 242 245 241 238 243 247 250 254 261 269 275 278 279 281 282 283 284 287 292 296 298 299 299 301 303 305 307 309 310 311 313 314 315 316 318 319 319 320 320 320 321 321 322 323 324 325 326 326 327 327 328 328 328 329 330 330 329 327 323 319 322 326 327 324 319 315 316 321 327 331 332 332 334 336 336 336 336 336
251 252 253 253 251 248 245 244 244 245 244 244 243 242 243 242 239 241 244 246 249 249 245 246 248 251 255 259 266 271 274 277 279 280 282 282 285 290 292 294 295 296 298 299 301 304 306 307 309 310 312 313 314 316 316 317 317 318 319 319 320 321 323 324 324 324 324 325 325 325 325 326 327 327 326 325 325 324 319 318 320 323 323 319 316 316 320 324 327 329 329 330 332 332 332 332 332
252 252 252 252 252 251 249 249 249 249 249 246 243 242 244 241 239 243 248 245 243 247 249 249 252 255 257 258 261 265 269 272 274 276 278 280 283 285 287 289 292 293 295 297 299 301 303 305 307 309 310 311 312 314 315 315 315 316 318 318 319 321 323 323 323 322 322 322 323 323 324 324 324 324 322 319 319 318 316 314 316 318 319 319 318 318 319 322 324 324 325 326 327 328 329 329 329
252 251 250 249 249 249 248 249 250 250 251 251 245 242 244 243 241 243 245 243 246 251 253 252 254 254 256 258 258 261 265 266 268 271 273 277 281 282 283 286 289 291 293 295 298 299 301 303 305 307 307 308 310 312 313 313 314 315 316 317 318 320 321 322 321 320 319 320 321 322 323 323 322 321 319 313 311 312 312 311 311 313 315 317 318 317 315 318 319 319 320 322 323 324 325 325 325
248 247 246 244 243 243 242 242 244 244 249 252 248 243 246 246 243 243 244 248 254 254 250 248 250 251 252 254 255 257 261 264 266 267 270 273 277 279 282 284 286 289 291 293 296 297 299 301 302 304 305 306 308 310 310 311 312 314 315 316 317 318 319 318 317 317 318 319 320 322 323 322 319 319 317 310 306 308 308 307 307 307 308 312 316 314 311 312 314 315 316 318 319 320 321 320 321
243 242 241 240 238 237 237 236 237 238 244 251 252 249 250 249 247 248 248 251 252 250 247 247 250 253 254 255 255 255 258 262 265 267 269 272 275 278 280 282 284 287 289 292 294 296 297 299 300 302 303 305 306 307 308 310 311 312 313 315 316 316 316 316 315 317 318 319 319 320 320 319 318 318 316 309 306 306 304 303 304 303 303 307 311 309 306 307 309 310 312 314 315 316 318 317 318
243 243 243 242 240 237 236 235 236 236 241 249 254 253 253 252 250 250 249 248 249 250 251 251 253 255 257 258 259 259 260 263 266 267 269 272 274 277 279 281 283 286 288 291 293 295 296 298 299 300 302 303 304 306 308 309 310 311 312 314 315 315 315 316 317 318 318 317 316 316 316 317 318 318 314 310 308 306 302 299 300 302 303 303 303 302 302 304 305 307 309 311 312 313 315 315 316
242 243 242 241 239 237 237 236 236 237 238 244 248 251 253 253 251 251 250 248 249 251 253 254 256 258 259 261 262 262 263 264 267 269 271 273 274 276 279 281 283 286 288 290 292 293 295 296 298 299 301 302 304 306 308 309 309 310 312 313 314 314 315 317 317 317 317 316 315 314 315 317 319 317 313 309 308 306 302 300 300 302 302 300 297 297 299 302 303 305 307 308 309 312 313 313 315
242 243 241 238 237 238 238 235 236 238 237 239 242 246 251 253 252 251 251 250 250 250 253 256 258 260 261 262 263 263 264 265 267 270 273 275 277 279 280 282 284 285 287 289 291 292 294 295 297 299 300 301 303 306 307 308 308 309 310 312 313 314 315 315 314 315 315 315 315 314 316 317 318 316 312 308 308 306 302 300 300 300 300 297 295 295 299 302 304 305 305 306 308 310 311 312 314
244 244 243 242 243 243 241 239 237 237 235 235 237 241 246 251 252 251 250 251 252 252 254 256 258 260 261 262 262 263 264 265 266 269 272 275 278 281 283 284 285 286 287 289 290 292 294 295 296 298 299 301 303 305 306 306 306 307 309 311 312 312 312 312 312 313 315 315 315 315 316 316 317 317 313 308 307 306 304 300 298 298 298 296 295 297 300 303 304 304 303 304 307 309 309 312 313
243 244 245 246 246 245 245 243 239 238 238 236 236 238 242 247 251 253 252 252 254 255 256 257 259 261 262 262 263 264 264 266 267 269 271 274 276 279 282 284 285 286 288 289 290 292 293 294 295 297 298 300 302 303 304 304 304 306 308 310 310 309 309 310 312 313 314 315 315 314 314 314 314 315 313 307 305 305 305 301 297 295 296 296 297 300 301 302 303 302 302 304 306 308 310 311 311
242 243 244 246 246 245 245 244 241 240 240 239 238 239 240 243 248 252 254 254 254 255 257 258 259 261 262 264 265 266 267 268 270 271 273 274 276 277 278 280 282 284 286 287 288 290 291 292 293 295 297 299 301 301 302 302 303 305 307 308 307 306 308 310 311 313 314 314 313 312 312 312 312 312 310 307 304 303 304 302 297 294 294 295 297 298 298 299 300 300 302 304 306 308 309 310 310
240 241 242 243 243 242 241 240 239 237 237 237 238 237 237 239 244 248 251 253 253 253 254 255 257 260 263 265 267 268 270 271 271 272 273 273 275 275 276 278 279 281 283 284 285 287 288 290 292 294 296 298 299 299 300 300 302 304 305 305 304 305 307 310 311 312 312 312 311 310 310 310 310 309 309 308 306 304 304 303 298 295 294 292 293 294 295 297 299 301 303 305 306 308 309 310 310